| time (UTC) | temp F | wind direction | speed MPH | gust MPH | rain 1hr in | rain 24hr in | rain mn in | humidity % | barometer mb |
| 20260503180149 | 51 | 157 | 2.0 | 6.0 | 0.00 | 0.01 | 0.00 | 86 | 1007.9 |
| 20260503174558 | 51 | 153 | 2.0 | 6.0 | 0.00 | 0.01 | 0.00 | 86 | 1008.0 |
| 20260503173050 | 51 | 132 | 3.0 | 6.0 | 0.00 | 0.01 | 0.00 | 85 | 1008.0 |
| 20260503171546 | 51 | 157 | 2.0 | 4.0 | 0.00 | 0.01 | 0.00 | 84 | 1008.0 |
| 20260503170145 | 51 | 163 | 2.0 | 6.0 | 0.00 | 0.01 | 0.00 | 83 | 1008.1 |
| 20260503160145 | 53 | 141 | 2.0 | 4.0 | 0.00 | 0.05 | 0.00 | 83 | 1008.6 |
| 20260503150132 | 53 | 138 | 2.0 | 3.0 | 0.00 | 0.05 | 0.00 | 85 | 1009.4 |
| 20260503140126 | 55 | 127 | 5.0 | 9.0 | 0.00 | 0.05 | 0.00 | 81 | 1010.1 |
| 20260503130111 | 54 | 48 | 3.0 | 8.0 | 0.00 | 0.05 | 0.00 | 84 | 1010.4 |
| 20260503120130 | 53 | 65 | 5.0 | 9.0 | 0.00 | 0.05 | 0.00 | 83 | 1010.8 |
| 20260503100106 | 58 | 56 | 7.0 | 12.0 | 0.00 | 0.05 | 0.05 | 71 | 1010.4 |
| 20260503081501 | 53 | 168 | 1.0 | 3.0 | 0.00 | 0.05 | 0.05 | 86 | 1010.2 |
| 20260503071559 | 50 | 192 | 1.0 | 3.0 | 0.00 | 0.05 | 0.05 | 93 | 1010.0 |
| 20260503054558 | 46 | 167 | 0.0 | 2.0 | 0.00 | 0.05 | 0.05 | 98 | 1009.6 |
| 20260503053054 | 46 | 182 | 0.0 | 0.0 | 0.00 | 0.05 | 0.05 | 97 | 1009.4 |
| 20260503051554 | 45 | 169 | 0.0 | 0.0 | 0.00 | 0.05 | 0.05 | 98 | 1009.4 |
| 20260503050055 | 44 | 169 | 0.0 | 2.0 | 0.00 | 0.05 | 0.05 | 97 | 1009.4 |
| 20260503044611 | 44 | 168 | 0.0 | 2.0 | 0.00 | 0.05 | 0.05 | 97 | 1009.3 |
| 20260503043057 | 44 | 168 | 0.0 | 1.0 | 0.01 | 0.05 | 0.05 | 97 | 1009.3 |
| 20260503041610 | 44 | 166 | 0.0 | 0.0 | 0.01 | 0.05 | 0.05 | 97 | 1009.2 |
| 20260503040053 | 44 | 182 | 0.0 | 2.0 | 0.01 | 0.05 | 0.05 | 96 | 1009.3 |
| 20260503034551 | 44 | 167 | 1.0 | 2.0 | 0.01 | 0.05 | 0.05 | 97 | 1009.5 |
| 20260503033103 | 44 | 167 | 0.0 | 2.0 | 0.00 | 0.04 | 0.04 | 96 | 1009.4 |
| 20260503031547 | 45 | 184 | 1.0 | 2.0 | 0.00 | 0.04 | 0.04 | 96 | 1009.5 |
| 20260503030043 | 45 | 182 | 1.0 | 2.0 | 0.00 | 0.04 | 0.04 | 96 | 1009.5 |
| 20260503024512 | 45 | 166 | 0.0 | 2.0 | 0.00 | 0.04 | 0.04 | 96 | 1009.4 |
| 20260503023011 | 45 | 169 | 0.0 | 1.0 | 0.00 | 0.04 | 0.04 | 96 | 1009.4 |
| 20260503021515 | 46 | 169 | 0.0 | 2.0 | 0.00 | 0.04 | 0.04 | 96 | 1009.3 |
| 20260503020111 | 46 | 169 | 0.0 | 2.0 | 0.00 | 0.04 | 0.04 | 96 | 1009.3 |
| 20260503014551 | 46 | 182 | 0.0 | 2.0 | 0.00 | 0.04 | 0.04 | 96 | 1009.4 |
| 20260503013047 | 46 | 182 | 0.0 | 1.0 | 0.00 | 0.04 | 0.04 | 96 | 1009.3 |
| 20260503011551 | 46 | 192 | 0.0 | 2.0 | 0.00 | 0.04 | 0.04 | 95 | 1009.3 |
| 20260503010045 | 47 | 186 | 0.0 | 1.0 | 0.00 | 0.04 | 0.04 | 95 | 1009.3 |
| 20260503004551 | 47 | 186 | 1.0 | 3.0 | 0.00 | 0.04 | 0.04 | 95 | 1009.5 |
| 20260503003055 | 47 | 180 | 0.0 | 3.0 | 0.00 | 0.04 | 0.04 | 95 | 1009.7 |
| 20260503001550 | 47 | 181 | 0.0 | 2.0 | 0.00 | 0.04 | 0.04 | 95 | 1009.5 |
| 20260503000047 | 48 | 186 | 0.0 | 3.0 | 0.00 | 0.04 | 0.04 | 95 | 1009.7 |
| 20260502234537 | 48 | 182 | 1.0 | 3.0 | 0.00 | 0.04 | 0.04 | 94 | 1009.5 |
| 20260502233028 | 49 | 198 | 0.0 | 2.0 | 0.00 | 0.04 | 0.04 | 94 | 1009.6 |
| 20260502231526 | 49 | 198 | 0.0 | 1.0 | 0.00 | 0.04 | 0.04 | 94 | 1009.7 |
| 20260502230024 | 50 | 178 | 0.0 | 3.0 | 0.00 | 0.04 | 0.04 | 94 | 1010.0 |
| 20260502224522 | 50 | 184 | 0.0 | 3.0 | 0.00 | 0.04 | 0.04 | 95 | 1009.9 |
| 20260502223021 | 50 | 186 | 1.0 | 3.0 | 0.00 | 0.04 | 0.04 | 95 | 1009.8 |
| 20260502221520 | 50 | 186 | 0.0 | 3.0 | 0.00 | 0.04 | 0.04 | 94 | 1009.9 |
| 20260502220024 | 50 | 180 | 0.0 | 2.0 | 0.00 | 0.04 | 0.04 | 94 | 1009.9 |
| 20260502214516 | 50 | 178 | 0.0 | 1.0 | 0.00 | 0.04 | 0.04 | 94 | 1009.9 |
| 20260502213026 | 51 | 180 | 0.0 | 2.0 | 0.00 | 0.04 | 0.04 | 94 | 1010.0 |
| 20260502211512 | 51 | 165 | 0.0 | 2.0 | 0.00 | 0.04 | 0.04 | 94 | 1010.1 |
| 20260502210011 | 50 | 165 | 0.0 | 2.0 | 0.00 | 0.04 | 0.04 | 94 | 1010.5 |
| 20260502204515 | 50 | 188 | 0.0 | 2.0 | 0.00 | 0.04 | 0.04 | 94 | 1010.5 |
| 20260502203013 | 51 | 159 | 0.0 | 3.0 | 0.00 | 0.04 | 0.04 | 94 | 1010.5 |
| 20260502201513 | 50 | 196 | 0.0 | 3.0 | 0.00 | 0.04 | 0.04 | 94 | 1010.5 |
| 20260502200012 | 50 | 207 | 0.0 | 2.0 | 0.00 | 0.04 | 0.04 | 94 | 1010.4 |
| 20260502194509 | 50 | 199 | 0.0 | 5.0 | 0.00 | 0.04 | 0.04 | 93 | 1010.3 |
| 20260502193008 | 50 | 202 | 0.0 | 5.0 | 0.00 | 0.04 | 0.04 | 94 | 1010.3 |
| 20260502191507 | 50 | 212 | 1.0 | 5.0 | 0.00 | 0.04 | 0.04 | 93 | 1010.2 |
| 20260502190005 | 51 | 159 | 2.0 | 6.0 | 0.00 | 0.04 | 0.04 | 93 | 1010.3 |
| 20260502184506 | 51 | 169 | 2.0 | 8.0 | 0.00 | 0.04 | 0.04 | 93 | 1010.2 |
| 20260502183004 | 51 | 167 | 1.0 | 5.0 | 0.00 | 0.04 | 0.04 | 93 | 1010.1 |
| 20260502181605 | 51 | 169 | 0.0 | 5.0 | 0.00 | 0.04 | 0.04 | 93 | 1010.2 |